Location: Austin
(30.3000°N, 97.7500°W)
Time: 07:07:30
(UTC-05:00)

Cosmos 2082 Rocket - Visible Passes

Search period start: 17 July 2025 00:00
Search period end: 27 July 2025 00:00
Orbit: 830 x 854 km, 71.0° (Epoch: 17 July)

Date Brightness Start Highest point End Pass type
(mag) Time Alt. Az. Time Alt. Az. Time Alt. Az.
17 Jul 2.5 21:12:51 10° N 21:18:28 54° ENE 21:23:53 11° SE visible
17 Jul 4.6 22:58:50 10° WNW 23:01:56 15° W 23:05:03 10° SW visible
18 Jul 2.5 20:58:01 10° N 21:03:35 51° ENE 21:09:06 10° SE visible
18 Jul 4.6 22:43:45 10° WNW 22:47:07 16° W 22:50:27 10° SW visible
19 Jul 4.6 22:28:43 10° WNW 22:32:17 17° W 22:35:50 10° SW visible
20 Jul 4.6 22:13:42 10° WNW 22:17:27 18° W 22:21:11 10° SW visible
21 Jul 4.5 21:58:41 10° WNW 22:02:37 19° W 22:06:31 10° SW visible
22 Jul 4.5 21:43:41 10° NW 21:47:47 20° W 21:51:51 10° SSW visible
23 Jul 4.5 21:28:42 10° NW 21:32:56 22° W 21:37:09 10° SSW visible
24 Jul 4.5 21:13:44 10° NW 21:18:06 23° W 21:22:28 10° SSW visible
25 Jul 4.5 20:58:46 10° NW 21:03:16 24° WSW 21:07:45 10° SSW visible
